Location: Forst
(46.9333°N, 15.4333°E)
Time: 08:36:09
(UTC+00:00)

deb Agena D - Visible Passes

Search period start: 21 June 2021 00:00
Search period end: 01 July 2021 00:00
Orbit: 573 x 591 km, 99.7° (Epoch: 20 June)

Date Brightness Start Highest point End Pass type
(mag) Time Alt. Az. Time Alt. Az. Time Alt. Az.
21 Jun ? 20:42:49 10° WSW 20:43:41 11° W 20:44:34 10° WNW visible
26 Jun ? 19:31:43 10° S 19:35:48 58° WSW 19:39:56 10° NNW visible
27 Jun ? 19:37:18 10° S 19:41:21 52° WSW 19:45:27 10° NNW visible
28 Jun ? 19:42:54 10° S 19:46:54 46° WSW 19:50:56 10° NNW visible
29 Jun ? 19:48:30 10° S 19:52:26 41° W 19:56:25 10° NNW visible
30 Jun ? 19:54:07 10° SSW 19:57:58 37° W 20:01:52 10° NNW visible
